Regional Weather Roundup
Issued by NWS Bismarck, ND

Home | Current Version | Previous Version | Text Only | Print | Product List | Glossary On
Versions: 1 2 3 4 5 6 7 8 9 10 11 12 13 14 15 16 17 18 19 20 21 22 23 24 25 26 27 28 29 30 31 32 33 34 35 36 37 38 39 40 41 42 43 44 45 46 47 48 49 50
000
ASUS43 KBIS 201010
RWRBIS

NWR BROADCAST TEXT
NATIONAL WEATHER SERVICE BISMARCK ND
500 AM CDT MON OCT 20 2014

NOTE: "FAIR" INDICATES FEW OR NO CLOUDS BELOW 12,000 FEET WITH NO
SIGNIFICANT WEATHER AND/OR OBSTRUCTIONS TO VISIBILITY.


CITY           SKY/WX    TMP DP  RH WIND       PRES   REMARKS
WILLISTON      CLEAR     34  31  88 CALM      29.99S
MINOT          CLEAR     46  34  62 SW10      30.00S
MINOT AFB      CLEAR     42  36  78 SW8       29.99S
BISMARCK       MOCLDY    35  34  96 CALM      30.06R
DICKINSON      CLEAR     39  34  82 S9        30.01S
GARRISON         N/A     35  31  85 CALM      30.02S
HETTINGER ARPT CLEAR     38  34  85 CALM      30.06S
JAMESTOWN      CLEAR     40  35  83 CALM      30.02R
BEACH            N/A     45  37  76 S12       30.01S
CARRINGTON     FAIR      37  37 100 N3        30.03S
CROSBY         FAIR      41  39  93 S12       29.98S
HARVEY         FAIR      37  36  93 CALM      30.02S
HAZEN          FAIR      28  27  93 CALM      30.04S
LINTON         FAIR      30  30 100 E6        30.06R
MANDAN         FAIR      39  36  87 CALM      30.05S
OAKES            N/A     41  37  87 NW5       30.03R
RUGBY          FAIR      36  36 100 SE5       30.01S
STANLEY        FAIR      36  36 100 CALM      30.01S
TIOGA          FAIR      34  34 100 NE3       30.03S
$$

CITY           SKY/WX    TMP DP  RH WIND       PRES   REMARKS
GRAND FORKS    CLEAR     38  35  89 NW8       30.01R
GRAND FORKS AF CLEAR     40  38  95 N6        30.02R
DEVILS LAKE    CLEAR     37  30  75 CALM      30.01R
FARGO          CLEAR     38  34  85 CALM      30.00R
CANDO          FAIR      34  32  93 NE7       30.03R
CAVALIER       FAIR      39  37  93 NW7       30.03R
GRAFTON        FAIR      39  39 100 NW9       30.02R
GWINNER        SUNNY     43  36  75 W8        30.02R
LANGDON        FAIR      32  28  86 N3        30.02R
ROLLA          FAIR      32  30  93 CALM      30.03S
WALHALLA       FAIR      36  36 100 W3        30.03R
$$

CITY           SKY/WX    TMP DP  RH WIND       PRES   REMARKS
ABERDEEN       PTCLDY    33  30  88 SE3       30.04R
MOBRIDGE       MOCLDY    36  33  89 W3        30.04S
BUFFALO          N/A     44  34  67 SE5       29.98F
RAPID CITY     CLEAR     44  36  73 CALM      30.07F
GLASGOW        CLEAR     45  36  70 E15       29.89S
SIDNEY         CLEAR     36  34  93 CALM      30.00S
WOLF POINT     CLEAR     38  34  85 NE7       29.93F
GLENDIVE       CLEAR     43  34  70 S5        29.99F
MILES CITY     CLEAR     52  37  56 SE10      29.94F
BAKER          CLEAR     42  34  73 E9        30.01F
$$

CITY           SKY/WX    TMP DP  RH WIND       PRES   REMARKS
BILLINGS       CLEAR     49  32  52 SW16      29.94F
GREAT FALLS    CLEAR     56  28  34 S15       29.86F
REGINA         CLEAR     39  36  87 E12       29.91F
ESTEVAN        CLEAR     39  36  87 SE8       29.97F
$$




USA.gov is the U.S. government's official web portal to all federal, state and local government web resources and services.